Flag for Canada Weather past 2 weeks in Nanaimo, British Columbia, Canada

Now
62 °F

Cool.


Feels Like: 62 °F
Forecast: 58 / 66 °F
Wind: 10 mph from South

Location: Entrance Island

Current Time: Aug 28, 2015 at 8:21:14 PM

Latest Report: Aug 28, 2015 at 8:00 PM


Visibility: N/A

Pressure: 29.80 "Hg

Humidity: 85%

Dew point: 57 °F

Location of NanaimoLocation

Historic Weather in Nanaimo — Graph

°F

Nanaimo temperature yesterday

Maximum temperature yesterday: 67 °F (at 6:00 PM)
Minimum temperature yesterday: 62 °F (at 1:00 AM)
Average temperature yesterday: 65 °F

Past Weeks' High & Low Weather Summary

 TemperatureHumidityPressure
High72 °F (Aug 18, 8:00 PM)98% (Aug 16, 5:00 AM)30.27 "Hg (Aug 16, 5:00 AM)
Low58 °F (Aug 16, 2:00 AM)49% (Aug 25, 6:00 PM)29.79 "Hg (Aug 19, 7:00 PM)
Average64 °F78%30.00 "Hg
* Reported Aug 13 7:00 PM — Aug 28 7:00 PM, Nanaimo, Weather by CustomWeather, © 2015

Note: Actual official high and low records may vary slightly from our data, if they occured in-between our weather recording intervals... More about our weather records

Advertising

Nanaimo weather history for previous 24 hours

 ConditionsComfort  
Time TempWeatherWind HumidityBarometerVisibility
7:00 PM
Fri, Aug 28
62 °FMild.13 mph89%29.82 "HgN/A
6:00 PM62 °FMild.13 mph90%29.83 "HgN/A
5:00 PM63 °FMild.15 mph90%29.85 "HgN/A
4:00 PM62 °FCool.14 mph91%29.88 "HgN/A
3:00 PM62 °FCool.16 mph92%29.89 "HgN/A
2:00 PM60 °FCool.16 mph98%29.90 "HgN/A
1:00 PM61 °FCool.16 mph91%29.90 "HgN/A
12:00 PM62 °FCool.17 mph90%29.90 "HgN/A
11:00 AM62 °FCool.14 mph89%29.91 "HgN/A
10:00 AM62 °FCool.20 mph89%29.91 "HgN/A
9:00 AM61 °FCool.21 mph94%29.90 "HgN/A
8:00 AM61 °FCool.22 mph95%29.89 "HgN/A
7:00 AM61 °FCool.17 mph93%29.90 "HgN/A
6:00 AM61 °FCool.17 mph92%29.90 "HgN/A
5:00 AM62 °FMild.15 mph93%29.90 "HgN/A
4:00 AM63 °FMild.9 mph88%29.90 "HgN/A
3:00 AM62 °FCool.17 mph90%29.91 "HgN/A
2:00 AM64 °FMild.10 mph88%29.93 "HgN/A
1:00 AM62 °FCool.7 mph82%29.94 "HgN/A
12:00 AM69 °FMild.17 mph64%29.91 "HgN/A
11:00 PM
Thu, Aug 27
65 °FMild.13 mph91%29.91 "HgN/A
10:00 PM66 °FMild.10 mph89%29.91 "HgN/A
9:00 PM66 °FMild.10 mph89%29.90 "HgN/A
8:00 PM66 °FMild.5 mph85%29.92 "HgN/A
Weather by CustomWeather, © 2015

See weather overviewHow to use our weather pages